Voltar ao catálogo

DELTA 1 DEB

AtivoPO
NORAD 26837·DEBRIS·🇺🇸 United States

Lançado Jun 12, 1975 de Vandenberg Space Force Base

Loading…

Próximas Passagens (próximas 24 horas)

TLE

AtualizadoSource: Space-Track

Época: Sep 14, 2026, 03:53 UTC

1 26837U 75052KR  26257.16182368  .00000685  00000-0  18224-2 0  9990
2 26837  99.6995  64.7700 0282853  41.6738   8.0729 13.05787420263314

Acompanhe DELTA 1 DEB em tempo real com AllMySat

Download on the App Store